STARLINK-32867, 62855

Orbit data source: Space-Track

STARLINK-32867, 62855 is a payload satellite owned by SpaceX/Seattle (US) in LEO that was launched on Sat, 01 Feb 2025 UTC via an FALCON 9 launch vehicle from the Air Force Western Test Range (AFWTR). Payload-class satellites include a variety of spacecraft equipped with specific instruments for various scientific and technological missions. These include communications satellites like Starlink; space stations such as the ISS; scientific satellites like the Hubble; Earth observation satellites from companies like Planet Labs, Umbra, and HawkEye 360; GPS; miniature CubeSats for education and research; and military/defense satellites.

Loading next visibility...
Identifier
62855, 2025-022B
Orbit
LEO
Last TLE update
3 hours ago
Origin
Manufacturer
SpaceX/Seattle
Mission
Operational Commercial Communications
Bus & Motor
STARLINK V2M, Unknown motor
Mass
730 kg wet, ~700 kg dry
Launch date (UTC)
2025-02-01 (5 months ago)
Launch vehicle
FALCON 9
Launch site
Air Force Western Test Range (AFWTR)
Object type
Payload
Rocket body
Debris
Shape & HBR
Box + 2 Pan, 29 m
Radar Cross Section
33.884 m², Large (>1 m²)

Expand to show TLE details & history

TLE from 3 hours ago
0 STARLINK-32867
1 62855U 25022B   25182.25002315 -.00010701  00000-0 -25792-3 0  9992
2 62855  53.1573 217.9426 0001124  85.2406  58.0750 15.39620002 24320
Epoch: 2025-07-01T06:00Z
TLE epoch observation values (Epoch: 2025-07-01T06:00:02Z)
Latitude
28.64025°
Longitude
4.37453°
Altitude
448.312 km
Speed
7.647 km/s
True Right ascension
00h 55m 43s
True Declination
28° 29' 21"
Sunlit
Object was in daylight at epoch
Visualization orbit readout
Latitude
52.80283°
Longitude
-73.14189°
Altitude
452.928 km
Speed
7.648 km/s
Apparent Right ascension
11h 22m 52s
Apparent Declination
49° 31' 17"
Sunlit
Object is in daylight
Visualization observer readout
Local Sidereal Time
20:29:36
Azimuth
333.326° NNW
Elevation
7.228°
Doppler factor
1
Orbital elements
Apogee altitude
448.257 km
Perigee altitude
446.723 km
Semi-major axis
6,825.627 km
Eccentricity
0.00011
Inclination
53.1573°
RAAN
217.9426°
Arg. of periapsis
85.2406°
True anomaly
Unknown
Mean anomaly
58.075°
Eccentric anomaly
Unknown
Mean motion
3.84884 °/min
Orbital period
93.53 mins
BSTAR
-0.00025792
Loading maneuver chart data...
Loading SW <> Apogee altitude chart data...
Loading historical data...
Loading historical data...
Loading historical data...
Loading historical data...
Loading historical data...
Loading historical data...
Loading historical data...

STARLINK-32867 Visibility forecast

Observer location: undefined°, undefined°

Span
Click to sort rows by Start time (UTC) header in descending order
Start Az.
Max El. time (UTC)
Max El. Az.
Max El.
End time (UTC)
End Az.
5 mins2025-07-01 12:07:25.468Z312.95° NW2025-07-01 12:09:25.468Z10.925° NNE44.717°2025-07-01 12:12:25.468Z127.916° SE
5 mins2025-07-02 04:56:25.468Z220.033° SW2025-07-02 04:58:25.468Z150.408° SSE43.877°2025-07-02 05:01:25.468Z53.961° ENE
|